Location: Lincolnton
(35.4660°N, 81.2500°W)
Time: 07:34:28
(UTC-05:00)

Hubble Space Telescope - Visible Passes

Search period start: 06 March 2015 00:00
Search period end: 16 March 2015 01:00
Orbit: 543 x 547 km, 28.5° (Epoch: 05 March)

Date Brightness Start Highest point End Pass type
(mag) Time Alt. Az. Time Alt. Az. Time Alt. Az.
06 Mar 2.8 04:56:57 18° SSE 04:56:57 18° SSE 04:58:44 10° SE visible
07 Mar 3.3 04:49:23 13° SSE 04:49:23 13° SSE 04:50:06 10° SSE visible
15 Mar 3.0 20:06:15 10° S 20:08:03 13° SSE 20:09:58 10° SE visible
15 Mar 3.2 21:45:21 10° SW 21:46:16 15° SW 21:46:16 15° SW visible
